User: anonymous   Login
Location: Unspecified
(0.0000°N, 0.0000°E)
Time: 05:05:21
(UTC+01:00)
Language:

CZ-4B R/B - Orbit

View from above orbital plane
View from above orbital plane
View from above satellite
View from above satellite

Ground track
Ground track

The orbit data is extracted from the following two-line orbital elements,

1 33410U 08053C   14331.10129064  .00004722  00000-0  37186-3 0  9940
2 33410 097.6063 303.2122 0129990 081.0655 280.5255 14.94769450331173
Epoch (UTC): 27 November 2014 02:25:51
Eccentricity: 0.0129990
inclination: 97.6063°
perigee height: 492 km
apogee height: 673 km
right ascension of ascending node: 303.2122°
argument of perigee: 81.0655°
revolutions per day: 14.94769450
mean anomaly at epoch: 280.5255°
orbit number at epoch: 33117

The dashed part of the orbit path shows where the satellite is in the earth's shadow,  

DLR